Regional Weather Roundup
Issued by NWS Grand Forks, ND

Home | Current Version | Previous Version | Graphics & Text | Print | Product List | Glossary On
Versions: 1 2 3 4 5 6 7 8 9 10 11 12 13 14 15 16 17 18 19 20 21 22 23 24 25 26 27 28 29 30 31 32 33 34 35 36 37 38 39 40 41 42 43 44 45 46 47 48 49 50
000
ASUS43 KFGF 300731
RWRFGF
PRAIRIE TO PINES  WEATHER ROUNDUP
NATIONAL WEATHER SERVICE EASTERN NORTH DAKOTA/GRAND FORKS ND
200 AM CDT SAT AUG 30 2014

 **SATELLITE DATA USED TO AUGMENT SKY COVER AT AUTOMATED STATIONS**
 *****  WEATHER ACROSS EASTERN NORTH DAKOTA  *****

CITY           SKY/WX    TMP DP  RH WIND       PRES   REMARKS
GRAND FORKS    CLEAR     53  51  93 N6        29.92R
GRAND FRKS AFB CLEAR     53  52  99 N5        29.94R
GRAND FRKS NWS   N/A     54 N/A N/A N12         N/A
DEVILS LAKE    CLEAR     50  43  76 CALM      29.95S
FARGO          MOCLDY    60  55  83 N14       29.87S
WAHPETON ARPT  CLOUDY    61  55  82 N8        29.87R
$$

 ***** WEATHER ACROSS CENTRAL AND WESTERN NORTH DAKOTA  *****

CITY           SKY/WX    TMP DP  RH WIND       PRES   REMARKS
BISMARCK       CLEAR     52  51  97 CALM      29.99S
MINOT          CLEAR     52  48  86 SW8       29.97R
JAMESTOWN      MOCLDY    57  53  86 N7        29.95S
MINOT AFB      CLEAR     49  49  99 SW8       29.96S
GARRISON         N/A     50  49  96 CALM      29.98S
WILLISTON      CLEAR     57  50  77 S3        29.95F
DICKINSON      CLEAR     51  48  89 SE8       29.98S
HETTINGER      PTCLDY    50  48  93 CALM      30.01S
$$

 *****  OTHER AIRPORT OBSERVATIONS IN OUR AREA  *****

CITY           SKY/WX    TMP DP  RH WIND       PRES   REMARKS
WALHALLA       FAIR      48  48 100 NW3       29.97S
GRAFTON AIRPOR FAIR      50  50 100 N8        29.94R
VALLEY CITY AR CLOUDY    57  57 100 N9G17     29.94S
CANDO          FOG       45  45 100 N3        29.99R VSB 3/4
CAVALIER APRT  FAIR      50  48  93 NW6       29.96S
GWINNER        CLOUDY    61  59  94 N10       29.92R
SHEYENNE NWR     N/A     61  56  85 N7        29.95S
ROLLA          FAIR      41  41 100 NW3       30.00S
 ***** THE ABOVE OBSERVATIONS ARE NON NWS ARE NOT QUALITY
       CONTROLLED AND MAY MIS-REPORT RAIN FOR SNOW...
$$

  *****  WEATHER ACROSS NORTHERN MINNESOTA  *****

CITY           SKY/WX    TMP DP  RH WIND       PRES   REMARKS
FLAG ISLAND    CLEAR     59  55  88 N13       29.90S
WARROAD        CLEAR     54  50  87 N8        29.92R
ROSEAU         CLEAR     52  46  82 N7        29.92S
HALLOCK        CLEAR     50  48  93 N6        29.94R
THF RVR FALLS  PTCLDY    55  52  88 N9        29.90S
BAUDETTE       PTCLDY    57  55  93 N8        29.88R
WASKISH        CLOUDY    57  55  94 N9        29.87S
CROOKSTON      CLEAR     55  52  88 N7        29.91S
$$
  *****  WEATHER ACROSS CENTRAL AND WEST MINNESOTA  *****

CITY           SKY/WX    TMP DP  RH WIND       PRES   REMARKS
FOSSTON        CLOUDY    57  55  94 N9        29.89S
BEMIDJI        CLOUDY    58  55  89 N9        29.86S
PARK RAPIDS    CLOUDY    65  62  90 N13       29.83S
ELBOW LAKE     CLOUDY    62  62  99 NW8       29.84S
WADENA         CLOUDY    64  63  94 NW5       29.82F
DETROIT LAKES  CLOUDY    61  59  94 N10       29.87S
MOORHEAD       CLOUDY    61  61 100 N12       29.88S
FERGUS FALLS   CLOUDY    63  61  94 N8        29.84S
MORRIS MN      CLOUDY    63  63 100 NW12      29.83S FOG
STAPLES        MOCLDY    63  63 100 CALM      29.82R
$$
  *****  WEATHER ELSEWHERE ACROSS MINNESOTA  *****

CITY           SKY/WX    TMP DP  RH WIND       PRES   REMARKS
DULUTH         CLOUDY    63  60  90 CALM      29.80S
INTRNTL FALLS  CLOUDY    58  54  86 N13       29.85R
ELY            CLOUDY    57  57 100 CALM      29.82S
CLOQUET        CLOUDY    63  61  94 NW3       29.80S FOG
WHEATON        CLOUDY    59  57  94 NW10      29.88S
BRAINERD       CLOUDY    64  64 100 W3        29.82R
HIBBING        CLOUDY    61  59  93 CALM      29.82S FOG
ALEXANDRIA     CLOUDY    66  64  93 NW8       29.84S
SAINT CLOUD    MOCLDY    68  66  93 CALM      29.79S
MINNEAPOLIS    RAIN      68  67  96 CALM      29.76F FOG
$$

  *****  WEATHER ACROSS SOUTH DAKOTA  *****

CITY           SKY/WX    TMP DP  RH WIND       PRES   REMARKS
SIOUX FALLS    MOCLDY    67  64  90 N10       29.85S
BROOKINGS      NOT AVBL
WATERTOWN      CLOUDY    60  59  96 N12       29.88S
HURON          CLOUDY    61  59  93 N10       29.90S
SISSETON         N/A     61  58  90 N15       29.87R
ABERDEEN       CLOUDY    59  55  87 N10       29.92R
MITCHELL       CLOUDY    63  60  90 N14G21    29.90R
PIERRE         CLEAR     59  56  89 W5        29.97R
MOBRIDGE       CLEAR     51  51 100 N5        29.96S
RAPID CITY     CLEAR     53  51  93 CALM      30.03F
$$

  *****  SOME WEATHER IN NEARBY STATES *****

CITY           SKY/WX    TMP DP  RH WIND       PRES   REMARKS
GLASGOW MT     CLEAR     57  52  83 E13       29.86F
GREAT FALLS MT MOCLDY    68  42  38 S10       29.78S
CHEYENNE WY    PTCLDY    52  47  83 W8        30.16F
SCOTTSBLUFF NE CLEAR     58  55  90 E6        30.07F
OMAHA NE       CLEAR     67  64  90 W3        29.85R
DES MOINES IA  CLOUDY    69  66  90 W12       29.80R
DAVENPORT IA   PTCLDY    70  68  93 S10       29.82F
CHICAGO IL     CLOUDY    74  67  78 S10       29.84F
EAU CLAIRE WI  LGT RAIN  67  67 100 E5        29.75F
LA CROSSE WI   LGT RAIN  69  67  93 CALM      29.74F FOG
$$

  *****  SOME NATIONAL WEATHER *****

CITY           SKY/WX    TMP DP  RH WIND       PRES   REMARKS
LA GUARDIA NY  PTCLDY    68  55  63 SE5       30.25S
RALEIGH NC     CLOUDY    74  69  85 SE8       30.18F
ATLANTA GA     MOCLDY    77  63  61 CALM      30.11F
NEW ORLEANS LA CLOUDY    79  74  84 SE10      29.99F
OKLAHOMA CITY  PTCLDY    70  65  84 SE6       29.94R
ALBUQUERQUE NM CLEAR     71  42  35 N5        30.14S
SALT LAKE CITY MOCLDY    75  41  29 S12       29.92F
LOS ANGELES CA MOCLDY    68  64  87 W5        29.83S
BOISE ID       CLOUDY    73  54  51 N7        29.81F
SEATTLE WA     CLOUDY    63  55  75 SW3       29.96S
$$

*** WEATHER ACROSS MANITOBA...SASKATCHEWAN AND ONTARIO ***
                ***ONTARIO***

CITY           SKY/WX    TMP DP  RH WIND       PRES   REMARKS
GERALDTON      FOG       52  52 100 CALM      29.79S VSB 1/4
THUNDER BAY    FOG       57  55  94 SW2       29.80R VSB 1/2
SIOUX LOOKOUT  PTCLDY    55  54  94 N3        29.88R
TORONTO        MOCLDY    64  61  88 SE3       30.07F
BIG TROUT LK   CLEAR     50  46  87 NW6       29.89R
PICKLE LAKE    NOT AVBL
DRYDEN         PTCLDY    54  54 100 N6        29.89S
KENORA         CLEAR     54  52  94 N6        29.92S
$$
                *** MANITOBA***

CITY           SKY/WX    TMP DP  RH WIND       PRES   REMARKS
BRANDON        CLEAR     45  43  93 NE2       29.99S
DAUPHIN        CLEAR     45  45 100 W3        29.97S
ISLAND LAKE    CLOUDY    52  45  76 NW6       29.96S
PILOT MOUND      N/A     46  43  87 NE6         N/A
THE PAS        CLEAR     48  46  93 SE7       29.92S
THOMPSON       CLOUDY    46  46 100 CALM      29.93S
WINNIPEG       CLEAR     45  43  93 VRB2      29.97S
LYNN LAKE      CLEAR     41  39  93 MISG      29.90S
CHURCHILL      PTCLDY    48  41  76 W14       29.79R
GILLAM         MOCLDY    46  41  81 SW6       29.90R
$$
                ***SASKATCHEWAN***

CITY           SKY/WX    TMP DP  RH WIND       PRES   REMARKS
ESTEVAN        PTCLDY    50  46  87 SE5       29.96S
KINDERSLEY     CLOUDY    59  52  77 SE15G21   29.68F
LLOYDMINSTER   CLEAR     55  46  71 SE14G20   29.65F
PRINCE ALBERT  MOCLDY    48  45  87 E5        29.84F
REGINA         CLEAR     52  46  82 SE13      29.90F
YORKTON        CLEAR     50  45  81 S6        29.94F
N. BATTLEFORD  PTCLDY    55  46  71 SE18G26   29.73F
LA RONGE       PTCLDY    55  46  71 SE9       29.84F
SASKATOON      PTCLDY    57  45  62 SE16G23   29.80F
SWIFT CURRENT  CLEAR     57  50  77 S18G26    29.76F
$$
NOTE: THESE ARE AUTOMATED STATIONS WITH LIMITED QUALITY CONTROL
      "FAIR" INDICATES FEW OR NO CLOUDS BELOW 12,000 FEET WITH NO
      SIGNIFICANT WEATHER AND/OR OBSTRUCTIONS TO VISIBILITY.
      SKY/WX - SKY CONDITION AND SIGNIFICANT WEATHER.
      TMP - AIR TEMPERATURE.    DP   - DEWPOINT TEMPERATURE.
      RH  - RELATIVE HUMIDITY.  PRES - PRESSURE.
      HX  - HEAT INDEX.         WCI  - WIND CHILL INDEX.
$


USA.gov is the U.S. government's official web portal to all federal, state and local government web resources and services.